TimeMST,TemperatureF,Dew PointF,Humidity,Sea Level PressureIn,VisibilityMPH,Wind Direction,Wind SpeedMPH,Gust SpeedMPH,PrecipitationIn,Events,Conditions,WindDirDegrees,DateUTC
12:53 AM,36.0,28.9,76,30.02,10.0,NNW,4.6,-,N/A,,Scattered Clouds,340,2014-03-03 07:53:00
1:53 AM,34.0,28.9,82,30.03,10.0,SW,4.6,-,N/A,,Clear,220,2014-03-03 08:53:00
2:53 AM,35.1,28.9,78,30.02,10.0,Calm,Calm,-,N/A,,Overcast,0,2014-03-03 09:53:00
3:53 AM,33.1,28.9,85,30.02,10.0,NW,3.5,-,N/A,,Partly Cloudy,310,2014-03-03 10:53:00
4:53 AM,33.1,28.9,85,30.04,10.0,NW,3.5,-,N/A,,Mostly Cloudy,320,2014-03-03 11:53:00
5:53 AM,30.9,27.0,85,30.07,10.0,NNW,3.5,-,N/A,,Scattered Clouds,330,2014-03-03 12:53:00
6:53 AM,30.9,26.1,82,30.10,10.0,Calm,Calm,-,N/A,,Clear,0,2014-03-03 13:53:00
7:53 AM,34.0,28.0,79,30.12,10.0,West,4.6,-,N/A,,Clear,270,2014-03-03 14:53:00
8:53 AM,39.9,28.0,63,30.12,10.0,Calm,Calm,-,N/A,,Clear,0,2014-03-03 15:53:00
9:53 AM,45.0,30.9,58,30.11,10.0,Variable,5.8,-,N/A,,Clear,0,2014-03-03 16:53:00
10:53 AM,48.0,32.0,54,30.09,10.0,Variable,5.8,-,N/A,,Clear,0,2014-03-03 17:53:00
11:53 AM,50.0,32.0,50,30.06,10.0,Variable,4.6,-,N/A,,Clear,0,2014-03-03 18:53:00
12:53 PM,51.1,30.0,44,30.02,10.0,Variable,4.6,-,N/A,,Clear,0,2014-03-03 19:53:00
1:53 PM,54.0,27.0,35,29.99,10.0,SW,12.7,18.4,N/A,,Clear,220,2014-03-03 20:53:00
2:53 PM,55.9,24.1,29,29.97,10.0,WSW,8.1,-,N/A,,Clear,250,2014-03-03 21:53:00
3:53 PM,55.9,19.9,25,29.95,10.0,SW,12.7,23.0,N/A,,Clear,230,2014-03-03 22:53:00
4:53 PM,55.0,19.0,24,29.93,10.0,WSW,11.5,-,N/A,,Clear,240,2014-03-03 23:53:00
5:53 PM,52.0,19.9,28,29.96,10.0,WSW,6.9,-,N/A,,Clear,240,2014-03-04 00:53:00
6:53 PM,51.1,23.0,33,29.98,10.0,WSW,6.9,-,N/A,,Scattered Clouds,240,2014-03-04 01:53:00
7:53 PM,50.0,23.0,35,29.97,10.0,WSW,9.2,-,N/A,,Scattered Clouds,240,2014-03-04 02:53:00
8:53 PM,48.0,24.1,39,29.97,10.0,North,-9999.0,-,N/A,,Clear,0,2014-03-04 03:53:00
9:53 PM,45.0,24.1,44,29.96,10.0,SW,5.8,-,N/A,,Clear,230,2014-03-04 04:53:00
10:53 PM,42.1,25.0,51,29.96,10.0,North,3.5,-,N/A,,Clear,10,2014-03-04 05:53:00
11:53 PM,37.0,26.1,65,29.96,10.0,Calm,Calm,-,N/A,,Clear,0,2014-03-04 06:53:00